TimeCST,TemperatureF,Dew PointF,Humidity,Sea Level PressureIn,VisibilityMPH,Wind Direction,Wind SpeedMPH,Gust SpeedMPH,PrecipitationIn,Events,Conditions,WindDirDegrees,DateUTC
12:15 AM,39.2,39.2,100,30.16,2.5,Calm,Calm,-,N/A,,Clear,0,2013-11-05 06:15:00
12:35 AM,41.0,41.0,100,30.16,4.0,Calm,Calm,-,N/A,,Clear,0,2013-11-05 06:35:00
12:55 AM,39.2,39.2,100,30.17,1.2,Calm,Calm,-,N/A,,Clear,0,2013-11-05 06:55:00
1:15 AM,37.4,37.4,100,30.17,0.2,Calm,Calm,-,N/A,Fog,Fog,0,2013-11-05 07:15:00
1:35 AM,35.6,35.6,100,30.17,0.2,Calm,Calm,-,N/A,Fog,Fog,0,2013-11-05 07:35:00
1:55 AM,37.4,37.4,100,30.17,0.2,Calm,Calm,-,N/A,Fog,Fog,0,2013-11-05 07:55:00
2:15 AM,35.6,35.6,100,30.17,0.2,Calm,Calm,-,N/A,Fog,Fog,0,2013-11-05 08:15:00
2:35 AM,35.6,35.6,100,30.17,0.2,Calm,Calm,-,N/A,Fog,Fog,0,2013-11-05 08:35:00
2:55 AM,33.8,33.8,100,30.18,0.2,Calm,Calm,-,N/A,Fog,Fog,0,2013-11-05 08:55:00
3:15 AM,33.8,33.8,100,30.18,0.2,Calm,Calm,-,N/A,Fog,Fog,0,2013-11-05 09:15:00
3:35 AM,33.8,33.8,100,30.18,0.2,Calm,Calm,-,N/A,Fog,Fog,0,2013-11-05 09:35:00
3:55 AM,32.0,32.0,100,30.19,0.2,Calm,Calm,-,N/A,Fog,Light Freezing Fog,0,2013-11-05 09:55:00
4:15 AM,32.0,32.0,100,30.20,0.2,Calm,Calm,-,N/A,Fog,Light Freezing Fog,0,2013-11-05 10:15:00
4:35 AM,30.2,30.2,100,30.20,0.2,Calm,Calm,-,N/A,Fog,Light Freezing Fog,0,2013-11-05 10:35:00
4:55 AM,30.2,30.2,100,30.20,0.2,Calm,Calm,-,N/A,Fog,Light Freezing Fog,0,2013-11-05 10:55:00
5:15 AM,30.2,30.2,100,30.20,0.2,Calm,Calm,-,N/A,Fog,Light Freezing Fog,0,2013-11-05 11:15:00
5:35 AM,30.2,30.2,100,30.19,0.2,Calm,Calm,-,N/A,Fog,Light Freezing Fog,0,2013-11-05 11:35:00
5:55 AM,30.2,30.2,100,30.19,0.5,Calm,Calm,-,N/A,,Overcast,0,2013-11-05 11:55:00
6:15 AM,28.4,28.4,100,30.20,0.2,Calm,Calm,-,N/A,Fog,Light Freezing Fog,0,2013-11-05 12:15:00
6:35 AM,28.4,28.4,100,30.20,0.2,Calm,Calm,-,N/A,,Overcast,0,2013-11-05 12:35:00
6:55 AM,28.4,28.4,100,30.20,0.2,Calm,Calm,-,N/A,Fog,Light Freezing Fog,0,2013-11-05 12:55:00
7:15 AM,30.2,30.2,100,30.20,0.2,Calm,Calm,-,N/A,Fog,Light Freezing Fog,0,2013-11-05 13:15:00
7:35 AM,30.2,30.2,100,30.20,0.2,Calm,Calm,-,N/A,Fog,Light Freezing Fog,0,2013-11-05 13:35:00
7:55 AM,30.2,30.2,100,30.22,0.5,Calm,Calm,-,N/A,Fog,Light Freezing Fog,0,2013-11-05 13:55:00
8:15 AM,30.2,30.2,100,30.22,0.2,Calm,Calm,-,N/A,Fog,Light Freezing Fog,0,2013-11-05 14:15:00
8:35 AM,32.0,32.0,100,30.22,0.2,Calm,Calm,-,N/A,Fog,Light Freezing Fog,0,2013-11-05 14:35:00
8:55 AM,33.8,33.8,100,30.21,1.0,Calm,Calm,-,N/A,,Mostly Cloudy,0,2013-11-05 14:55:00
9:15 AM,35.6,35.6,100,30.19,2.5,Calm,Calm,-,N/A,,Mostly Cloudy,0,2013-11-05 15:15:00
9:35 AM,39.2,39.2,100,30.19,2.0,Calm,Calm,-,N/A,,Overcast,0,2013-11-05 15:35:00
9:55 AM,37.4,37.4,100,30.18,0.8,NNW,3.5,-,N/A,,Overcast,340,2013-11-05 15:55:00
10:15 AM,37.4,37.4,100,30.19,2.0,Calm,Calm,-,N/A,,Overcast,0,2013-11-05 16:15:00
10:35 AM,39.2,39.2,100,30.18,7.0,ENE,4.6,-,N/A,,Overcast,60,2013-11-05 16:35:00
10:55 AM,39.2,39.2,100,30.18,6.0,NE,3.5,-,N/A,Rain,Light Rain,50,2013-11-05 16:55:00
11:15 AM,41.0,41.0,100,30.17,5.0,East,5.8,-,N/A,Rain,Light Rain,100,2013-11-05 17:15:00
11:35 AM,41.0,41.0,100,30.16,8.0,ENE,4.6,-,N/A,,Mostly Cloudy,60,2013-11-05 17:35:00
11:55 AM,42.8,42.8,100,30.15,8.0,East,4.6,-,N/A,,Mostly Cloudy,80,2013-11-05 17:55:00
12:15 PM,42.8,42.8,100,30.13,4.0,NE,4.6,-,N/A,Rain,Light Rain,50,2013-11-05 18:15:00
12:35 PM,42.8,42.8,100,30.12,3.0,Variable,4.6,-,N/A,Rain,Light Rain,0,2013-11-05 18:35:00
12:55 PM,42.8,42.8,100,30.10,2.5,ENE,4.6,-,0.02,Rain,Light Rain,60,2013-11-05 18:55:00
1:15 PM,42.8,42.8,100,30.09,2.0,ENE,5.8,-,N/A,Rain,Light Rain,60,2013-11-05 19:15:00
1:35 PM,42.8,42.8,100,30.07,1.8,ENE,6.9,-,N/A,Rain,Light Rain,70,2013-11-05 19:35:00
1:55 PM,44.6,44.6,100,30.05,1.8,NE,4.6,-,0.02,Rain,Light Rain,50,2013-11-05 19:55:00
2:15 PM,44.6,44.6,100,30.02,1.2,ENE,8.1,-,N/A,Rain,Light Rain,60,2013-11-05 20:15:00
2:35 PM,44.6,44.6,100,30.01,1.5,East,10.4,16.1,N/A,Rain,Light Rain,80,2013-11-05 20:35:00
2:55 PM,44.6,44.6,100,30.00,2.0,East,12.7,-,0.05,Rain,Light Rain,90,2013-11-05 20:55:00
3:15 PM,44.6,44.6,100,30.00,2.0,East,10.4,-,N/A,Rain,Light Rain,90,2013-11-05 21:15:00
3:35 PM,44.6,44.6,100,29.98,2.0,Variable,6.9,-,N/A,Rain,Rain,0,2013-11-05 21:35:00
3:55 PM,46.4,46.4,100,29.98,2.0,ENE,10.4,-,0.13,Rain,Rain,70,2013-11-05 21:55:00
4:15 PM,44.6,44.6,100,29.97,1.5,NE,6.9,-,N/A,Rain,Heavy Rain,40,2013-11-05 22:15:00
4:35 PM,44.6,44.6,100,29.95,3.0,NE,6.9,-,N/A,Rain,Rain,50,2013-11-05 22:35:00
4:55 PM,44.6,44.6,100,29.96,4.0,NW,5.8,-,0.20,Rain,Light Rain,310,2013-11-05 22:55:00
5:15 PM,44.6,44.6,100,29.94,3.0,NE,8.1,-,N/A,Rain,Heavy Rain,50,2013-11-05 23:15:00
5:35 PM,44.6,44.6,100,29.94,2.5,NNE,9.2,16.1,N/A,Rain,Heavy Rain,30,2013-11-05 23:35:00
5:55 PM,44.6,44.6,100,29.92,3.0,NE,8.1,15.0,0.22,Rain,Heavy Rain,40,2013-11-05 23:55:00
6:15 PM,44.6,44.6,100,29.91,4.0,NE,9.2,-,N/A,Rain,Rain,50,2013-11-06 00:15:00
6:35 PM,44.6,44.6,100,29.90,3.0,NNE,9.2,-,N/A,Rain,Rain,30,2013-11-06 00:35:00
6:55 PM,44.6,44.6,100,29.89,2.0,NE,8.1,13.8,0.10,Rain,Rain,40,2013-11-06 00:55:00
7:15 PM,44.6,44.6,100,29.88,2.0,Variable,6.9,16.1,N/A,Rain,Rain,0,2013-11-06 01:15:00
7:35 PM,44.6,44.6,100,29.87,2.5,NE,5.8,11.5,N/A,Rain,Light Rain,40,2013-11-06 01:35:00
7:55 PM,44.6,44.6,100,29.85,1.8,ENE,10.4,-,0.06,Rain,Rain,60,2013-11-06 01:55:00
8:15 PM,44.6,44.6,100,29.84,3.0,Variable,4.6,13.8,N/A,Rain,Rain,0,2013-11-06 02:15:00
8:35 PM,44.6,44.6,100,29.83,3.0,Variable,5.8,-,N/A,Rain,Rain,0,2013-11-06 02:35:00
8:55 PM,44.6,44.6,100,29.83,2.5,Variable,4.6,12.7,0.07,Rain,Rain,0,2013-11-06 02:55:00
9:15 PM,44.6,44.6,100,29.82,3.0,Variable,6.9,-,N/A,Rain,Rain,0,2013-11-06 03:15:00
9:35 PM,44.6,44.6,100,29.83,4.0,Calm,Calm,-,N/A,Rain,Light Rain,0,2013-11-06 03:35:00
9:55 PM,44.6,44.6,100,29.82,2.5,North,9.2,-,0.09,Rain,Light Rain,10,2013-11-06 03:55:00
10:15 PM,44.6,44.6,100,29.82,1.8,NNW,5.8,-,N/A,Rain,Rain,340,2013-11-06 04:15:00
10:35 PM,42.8,42.8,100,29.80,2.5,NNE,10.4,-,N/A,Rain,Rain,20,2013-11-06 04:35:00
10:55 PM,42.8,42.8,100,29.80,2.5,NNE,8.1,-,0.09,Rain,Light Rain,30,2013-11-06 04:55:00
11:15 PM,42.8,42.8,100,29.80,2.5,NNE,9.2,-,N/A,Rain,Rain,20,2013-11-06 05:15:00
11:35 PM,42.8,42.8,100,29.79,2.5,NNE,9.2,16.1,N/A,Rain,Heavy Rain,30,2013-11-06 05:35:00
11:55 PM,42.8,42.8,100,29.80,4.0,North,8.1,-,0.11,Rain,Rain,350,2013-11-06 05:55:00